Starlink 3665

operational
NORAD ID: 52098 Int'l Des: 2022-029 Owner: SPXS Country: US Constellation: starlink
LEOCIRCULAR

Starlink 3665について

説明を読み込み中...

リアルタイム位置

3D地球を読み込み中...

次回通過

高度履歴

Altitude vs Time

uPlot chart will show altitude changes over time

軌道要素

1 52098U 22029L 25258.99453243 .00000138 00000-0 26783-4 0 9992
2 52098 53.2175 153.3571 0001374 86.7406 273.3744 15.08843245194284
Epoch: Sep 15, 2025 • Age: 20 hours

現在のステータス

高度 545.6 km
速度 7.59 km/s
衛星直下点 -19.69°S, 51.3°E
打ち上げ日 Mar 19, 2022
運用期間 3.4 years
タイプ internet

技術仕様

分類 Payload
質量 297.00 kg
乾燥質量 275.00 kg
総質量 297.00 kg
長さ 0.20 m
直径 2.80 m
スパン 9.00 m
形状 Box + pan
製造者 SPXS
バスタイプ Starlink
フェーズステータス In Orbit
所有者/国 SPXS/US

大規模コンステレーション

Loading constellations...